This is the latest recevied weather packets stored in our database for station/object KB2M. If no packets are shown the sender has not sent any weather packets the latest 10 day(s).
| Time | Temp. | Humidity | Pressure | Rain* | Wind** | Luminosity | Snow |
|---|---|---|---|---|---|---|---|
| 1778087696 | 27.22° C | 71% | 1018.6 hPa | 0 mm | - | - | - |
| 1778087095 | 27.22° C | 70% | 1018.9 hPa | 0 mm | - | - | - |
| 1778086495 | 27.22° C | 69% | 1018.9 hPa | 0 mm | - | - | - |
| 1778085894 | 27.78° C | 68% | 1018.9 hPa | 0 mm | - | - | - |
| 1778085293 | 27.78° C | 67% | 1018.9 hPa | 0 mm | - | - | - |
| 1778084692 | 27.78° C | 67% | 1019.3 hPa | 0 mm | - | - | - |
| 1778084092 | 27.78° C | 66% | 1019.3 hPa | 0 mm | - | - | - |
| 1778083491 | 28.33° C | 64% | 1019.3 hPa | 0 mm | - | - | - |
| 1778082891 | 28.33° C | 57% | 1019.3 hPa | 0 mm | - | - | - |
| 1778082261 | 28.33° C | 57% | 1019.3 hPa | 0 mm | - | - | - |
| 1778081631 | 28.33° C | 55% | 1019.3 hPa | 0 mm | - | - | - |
| 1778081001 | 28.33° C | 57% | 1019.3 hPa | 0 mm | - | - | - |
| 1778080401 | 27.78° C | 58% | 1019.3 hPa | 0 mm | - | - | - |
| 1778079801 | 27.78° C | 61% | 1019.3 hPa | 0 mm | - | - | - |
| 1778079201 | 27.22° C | 61% | 1019.3 hPa | 0 mm | - | - | - |
| 1778078601 | 27.22° C | 62% | 1018.9 hPa | 0 mm | - | - | - |
| 1778078001 | 26.67° C | 63% | 1018.9 hPa | 0 mm | - | - | - |
| 1778077401 | 26.67° C | 63% | 1019.3 hPa | 0 mm | - | - | - |
| 1778076771 | 26.11° C | 66% | 1018.9 hPa | 0 mm | - | - | - |
| 1778076171 | 25.56° C | 69% | 1018.9 hPa | 0 mm | - | - | - |
| 1778075570 | 25.56° C | 71% | 1018.9 hPa | 0 mm | - | - | - |
| 1778074969 | 25° C | 72% | 1018.9 hPa | 0 mm | - | - | - |
| 1778074369 | 25° C | 73% | 1018.9 hPa | 0 mm | - | - | - |
| 1778073768 | 25° C | 73% | 1018.9 hPa | 0 mm | - | - | - |
| 1778073168 | 24.44° C | 74% | 1018.6 hPa | 0 mm | - | - | - |
* Rain latest hour (hover to see other rain measurements)
** Current wind speed in m/s (hover to see current wind gust speed)